Time,TemperatureF,DewpointF,PressureIn,WindDirection,WindDirectionDegrees,WindSpeedMPH,WindSpeedGustMPH,Humidity,HourlyPrecipIn,Conditions,Clouds,dailyrainin,SolarRadiationWatts/m^2,SoftwareType,DateUTC
2013-02-06 00:01:00,29.0,25.0,-100.00,SW,215,6.0,19.0,86,0.00,,,0.00,0.000000,,2013-02-06 07:01:00,
2013-02-06 00:32:00,29.0,23.0,-100.00,SW,222,7.0,15.0,77,0.00,,,0.00,0.000000,,2013-02-06 07:32:00,
2013-02-06 00:42:00,29.0,23.0,-100.00,SW,222,7.0,15.0,77,0.00,,,0.00,0.000000,,2013-02-06 07:42:00,
2013-02-06 00:52:00,29.0,23.0,-100.00,SW,222,7.0,15.0,77,0.00,,,0.00,0.000000,,2013-02-06 07:52:00,
2013-02-06 01:01:00,29.0,23.0,-100.00,SW,222,7.0,15.0,77,0.00,,,0.00,0.000000,,2013-02-06 08:01:00,
2013-02-06 01:32:00,29.0,21.0,-100.00,SW,218,4.0,15.0,71,0.00,,,0.00,0.000000,,2013-02-06 08:32:00,
2013-02-06 01:42:00,29.0,21.0,-100.00,SW,218,4.0,15.0,71,0.00,,,0.00,0.000000,,2013-02-06 08:42:00,
2013-02-06 01:53:00,29.0,21.0,-100.00,SW,218,4.0,15.0,71,0.00,,,0.00,0.000000,,2013-02-06 08:53:00,
2013-02-06 02:01:00,29.0,21.0,-100.00,SW,218,4.0,15.0,71,0.00,,,0.00,0.000000,,2013-02-06 09:01:00,
2013-02-06 02:32:00,29.0,20.0,-100.00,SSW,209,4.0,15.0,68,0.00,,,0.00,0.000000,,2013-02-06 09:32:00,
2013-02-06 02:42:00,29.0,20.0,-100.00,SSW,209,4.0,15.0,68,0.00,,,0.00,0.000000,,2013-02-06 09:42:00,
2013-02-06 02:52:00,29.0,20.0,-100.00,SSW,209,4.0,15.0,68,0.00,,,0.00,0.000000,,2013-02-06 09:52:00,
2013-02-06 03:01:00,29.0,20.0,-100.00,SSW,209,4.0,15.0,68,0.00,,,0.00,0.000000,,2013-02-06 10:01:00,
2013-02-06 03:32:00,29.0,22.0,-100.00,WSW,252,5.0,10.0,76,0.00,,,0.00,0.000000,,2013-02-06 10:32:00,
2013-02-06 03:42:00,29.0,22.0,-100.00,WSW,252,5.0,10.0,76,0.00,,,0.00,0.000000,,2013-02-06 10:42:00,
2013-02-06 03:52:00,29.0,22.0,-100.00,WSW,252,5.0,10.0,76,0.00,,,0.00,0.000000,,2013-02-06 10:52:00,
2013-02-06 04:01:00,29.0,22.0,-100.00,WSW,252,5.0,10.0,76,0.00,,,0.00,0.000000,,2013-02-06 11:01:00,
2013-02-06 04:32:00,28.0,21.0,-100.00,West,275,3.0,11.0,75,0.00,,,0.00,0.000000,,2013-02-06 11:32:00,
2013-02-06 04:42:00,28.0,21.0,-100.00,West,275,3.0,11.0,75,0.00,,,0.00,0.000000,,2013-02-06 11:42:00,
2013-02-06 04:52:00,28.0,21.0,-100.00,West,275,3.0,11.0,75,0.00,,,0.00,0.000000,,2013-02-06 11:52:00,
2013-02-06 05:01:00,28.0,21.0,-100.00,West,275,3.0,11.0,75,0.00,,,0.00,0.000000,,2013-02-06 12:01:00,
2013-02-06 05:32:00,26.0,24.0,-100.00,ESE,114,5.0,13.0,92,0.00,,,0.00,0.000000,,2013-02-06 12:32:00,
2013-02-06 05:42:00,26.0,24.0,-100.00,ESE,114,5.0,13.0,92,0.00,,,0.00,0.000000,,2013-02-06 12:42:00,
2013-02-06 05:52:00,26.0,24.0,-100.00,ESE,114,5.0,13.0,92,0.00,,,0.00,0.000000,,2013-02-06 12:52:00,
2013-02-06 06:01:00,26.0,24.0,-100.00,ESE,114,5.0,13.0,92,0.00,,,0.00,0.000000,,2013-02-06 13:01:00,
2013-02-06 06:32:00,27.0,24.0,-100.00,SSE,159,4.0,11.0,89,0.00,,,-99.99,0.000000,,2013-02-06 13:32:00,
2013-02-06 06:42:00,27.0,24.0,-100.00,SSE,159,4.0,11.0,89,0.00,,,-99.99,0.000000,,2013-02-06 13:42:00,
2013-02-06 06:52:00,27.0,24.0,-100.00,SSE,159,4.0,11.0,89,0.00,,,-99.99,0.000000,,2013-02-06 13:52:00,
2013-02-06 07:01:00,27.0,24.0,-100.00,SSE,159,4.0,11.0,89,0.00,,,-99.99,0.000000,,2013-02-06 14:01:00,
2013-02-06 07:32:00,27.0,23.0,-100.00,West,260,5.0,12.0,86,0.00,,,0.00,0.000000,,2013-02-06 14:32:00,
2013-02-06 07:42:00,27.0,23.0,-100.00,West,260,5.0,12.0,86,0.00,,,0.00,0.000000,,2013-02-06 14:42:00,
2013-02-06 07:52:00,27.0,23.0,-100.00,West,260,5.0,12.0,86,0.00,,,0.00,0.000000,,2013-02-06 14:52:00,
2013-02-06 08:01:00,27.0,23.0,-100.00,West,260,5.0,12.0,86,0.00,,,0.00,0.000000,,2013-02-06 15:01:00,
2013-02-06 08:32:00,27.0,23.0,-100.00,West,275,6.0,16.0,83,0.00,,,0.00,2.000000,,2013-02-06 15:32:00,
2013-02-06 08:42:00,27.0,23.0,-100.00,West,275,6.0,16.0,83,0.00,,,0.00,2.000000,,2013-02-06 15:42:00,
2013-02-06 08:52:00,27.0,23.0,-100.00,West,275,6.0,16.0,83,0.00,,,0.00,2.000000,,2013-02-06 15:52:00,
2013-02-06 09:01:00,27.0,23.0,-100.00,West,275,6.0,16.0,83,0.00,,,0.00,2.000000,,2013-02-06 16:01:00,
2013-02-06 09:32:00,29.0,18.0,-100.00,WSW,255,8.0,24.0,63,0.00,,,-99.99,85.000000,,2013-02-06 16:32:00,
2013-02-06 09:42:00,29.0,18.0,-100.00,WSW,255,8.0,24.0,63,0.00,,,-99.99,85.000000,,2013-02-06 16:42:00,
2013-02-06 09:52:00,29.0,18.0,-100.00,WSW,255,8.0,24.0,63,0.00,,,-99.99,85.000000,,2013-02-06 16:52:00,
2013-02-06 10:01:00,29.0,18.0,-100.00,WSW,255,8.0,24.0,63,0.00,,,-99.99,85.000000,,2013-02-06 17:01:00,
2013-02-06 10:32:00,29.0,20.0,-100.00,WSW,244,6.0,15.0,70,0.00,,,0.00,86.000000,,2013-02-06 17:32:00,
2013-02-06 10:42:00,29.0,20.0,-100.00,WSW,244,6.0,15.0,70,0.00,,,0.00,86.000000,,2013-02-06 17:42:00,
2013-02-06 10:52:00,29.0,20.0,-100.00,WSW,244,6.0,15.0,70,0.00,,,0.00,86.000000,,2013-02-06 17:52:00,
2013-02-06 11:01:00,29.0,20.0,-100.00,WSW,244,6.0,15.0,70,0.00,,,0.00,86.000000,,2013-02-06 18:01:00,
2013-02-06 11:33:00,35.0,26.0,-100.00,SW,218,4.0,17.0,68,0.04,,,0.04,286.000000,,2013-02-06 18:33:00,
2013-02-06 11:42:00,35.0,26.0,-100.00,SW,218,4.0,17.0,68,0.04,,,0.04,286.000000,,2013-02-06 18:42:00,
2013-02-06 11:52:00,35.0,26.0,-100.00,SW,218,4.0,17.0,68,0.04,,,0.04,286.000000,,2013-02-06 18:52:00,
2013-02-06 12:01:00,35.0,26.0,-100.00,SW,218,4.0,17.0,68,0.04,,,0.04,286.000000,,2013-02-06 19:01:00,
2013-02-06 12:32:00,33.0,24.0,-100.00,NNE,17,4.0,16.0,69,0.01,,,0.05,212.000000,,2013-02-06 19:32:00,
2013-02-06 12:42:00,33.0,24.0,-100.00,NNE,17,4.0,16.0,69,0.01,,,0.05,212.000000,,2013-02-06 19:42:00,
2013-02-06 12:52:00,33.0,24.0,-100.00,NNE,17,4.0,16.0,69,0.01,,,0.05,212.000000,,2013-02-06 19:52:00,
2013-02-06 13:01:00,33.0,24.0,-100.00,NNE,17,4.0,16.0,69,0.01,,,0.05,212.000000,,2013-02-06 20:01:00,
2013-02-06 13:32:00,30.0,21.0,-100.00,West,272,15.0,28.0,68,0.01,,,0.06,311.000000,,2013-02-06 20:32:00,
2013-02-06 13:42:00,30.0,21.0,-100.00,West,272,15.0,28.0,68,0.01,,,0.06,311.000000,,2013-02-06 20:42:00,
2013-02-06 13:52:00,30.0,21.0,-100.00,West,272,15.0,28.0,68,0.01,,,0.06,311.000000,,2013-02-06 20:52:00,
2013-02-06 14:01:00,30.0,21.0,-100.00,West,272,15.0,28.0,68,0.01,,,0.06,311.000000,,2013-02-06 21:01:00,
2013-02-06 14:32:00,31.0,18.0,-100.00,West,263,9.0,20.0,57,0.00,,,0.06,204.000000,,2013-02-06 21:32:00,
2013-02-06 14:42:00,31.0,18.0,-100.00,West,263,9.0,20.0,57,0.00,,,0.06,204.000000,,2013-02-06 21:42:00,
2013-02-06 14:52:00,31.0,18.0,-100.00,West,263,9.0,20.0,57,0.00,,,0.06,204.000000,,2013-02-06 21:52:00,
2013-02-06 15:01:00,31.0,18.0,-100.00,West,263,9.0,20.0,57,0.00,,,0.06,204.000000,,2013-02-06 22:01:00,
2013-02-06 15:32:00,33.0,21.0,-100.00,West,276,9.0,17.0,61,0.00,,,0.06,275.000000,,2013-02-06 22:32:00,
2013-02-06 15:42:00,33.0,21.0,-100.00,West,276,9.0,17.0,61,0.00,,,0.06,275.000000,,2013-02-06 22:42:00,
2013-02-06 15:52:00,33.0,21.0,-100.00,West,276,9.0,17.0,61,0.00,,,0.06,275.000000,,2013-02-06 22:52:00,
2013-02-06 16:01:00,33.0,21.0,-100.00,West,276,9.0,17.0,61,0.00,,,0.06,275.000000,,2013-02-06 23:01:00,
2013-02-06 16:32:00,31.0,19.0,-100.00,WSW,249,6.0,16.0,60,0.00,,,0.06,181.000000,,2013-02-06 23:32:00,
2013-02-06 16:42:00,31.0,19.0,-100.00,WSW,249,6.0,16.0,60,0.00,,,0.06,181.000000,,2013-02-06 23:42:00,
2013-02-06 16:52:00,31.0,19.0,-100.00,WSW,249,6.0,16.0,60,0.00,,,0.06,181.000000,,2013-02-06 23:52:00,
2013-02-06 17:01:00,31.0,19.0,-100.00,WSW,249,6.0,16.0,60,0.00,,,0.06,181.000000,,2013-02-07 00:01:00,
2013-02-06 17:32:00,29.0,18.0,-100.00,West,261,8.0,17.0,63,0.00,,,0.06,66.000000,,2013-02-07 00:32:00,
2013-02-06 17:42:00,29.0,18.0,-100.00,West,261,8.0,17.0,63,0.00,,,0.06,66.000000,,2013-02-07 00:42:00,
2013-02-06 17:52:00,29.0,18.0,-100.00,West,261,8.0,17.0,63,0.00,,,0.06,66.000000,,2013-02-07 00:52:00,
2013-02-06 18:01:00,29.0,18.0,-100.00,West,261,8.0,17.0,63,0.00,,,0.06,66.000000,,2013-02-07 01:01:00,
2013-02-06 18:32:00,29.0,17.0,-100.00,WSW,249,6.0,13.0,60,0.00,,,0.06,12.000000,,2013-02-07 01:32:00,
2013-02-06 18:42:00,29.0,17.0,-100.00,WSW,249,6.0,13.0,60,0.00,,,0.06,12.000000,,2013-02-07 01:42:00,
2013-02-06 18:52:00,29.0,17.0,-100.00,WSW,249,6.0,13.0,60,0.00,,,0.06,12.000000,,2013-02-07 01:52:00,
2013-02-06 19:01:00,29.0,17.0,-100.00,WSW,249,6.0,13.0,60,0.00,,,0.06,12.000000,,2013-02-07 02:01:00,
2013-02-06 19:32:00,28.0,16.0,-100.00,WSW,246,6.0,9.0,60,0.00,,,0.06,0.000000,,2013-02-07 02:32:00,
2013-02-06 19:42:00,28.0,16.0,-100.00,WSW,246,6.0,9.0,60,0.00,,,0.06,0.000000,,2013-02-07 02:42:00,
2013-02-06 19:52:00,28.0,16.0,-100.00,WSW,246,6.0,9.0,60,0.00,,,0.06,0.000000,,2013-02-07 02:52:00,
2013-02-06 20:01:00,28.0,16.0,-100.00,WSW,246,6.0,9.0,60,0.00,,,0.06,0.000000,,2013-02-07 03:01:00,
2013-02-06 20:32:00,27.0,17.0,-100.00,SE,134,3.0,6.0,66,0.00,,,0.06,0.000000,,2013-02-07 03:32:00,
2013-02-06 20:42:00,27.0,17.0,-100.00,SE,134,3.0,6.0,66,0.00,,,0.06,0.000000,,2013-02-07 03:42:00,
2013-02-06 20:52:00,27.0,17.0,-100.00,SE,134,3.0,6.0,66,0.00,,,0.06,0.000000,,2013-02-07 03:52:00,
2013-02-06 21:01:00,27.0,17.0,-100.00,SE,134,3.0,6.0,66,0.00,,,0.06,0.000000,,2013-02-07 04:01:00,
2013-02-06 21:32:00,27.0,16.0,-100.00,West,269,1.0,6.0,63,0.00,,,0.06,0.000000,,2013-02-07 04:32:00,
2013-02-06 21:42:00,27.0,16.0,-100.00,West,269,1.0,6.0,63,0.00,,,0.06,0.000000,,2013-02-07 04:42:00,
2013-02-06 21:53:00,27.0,16.0,-100.00,West,269,1.0,6.0,63,0.00,,,0.06,0.000000,,2013-02-07 04:53:00,
2013-02-06 22:01:00,27.0,16.0,-100.00,West,269,1.0,6.0,63,0.00,,,0.06,0.000000,,2013-02-07 05:01:00,
2013-02-06 22:32:00,27.0,18.0,-100.00,SW,234,4.0,6.0,68,0.00,,,0.06,0.000000,,2013-02-07 05:32:00,
2013-02-06 22:42:00,27.0,18.0,-100.00,SW,234,4.0,6.0,68,0.00,,,0.06,0.000000,,2013-02-07 05:42:00,
2013-02-06 22:52:00,27.0,18.0,-100.00,SW,234,4.0,6.0,68,0.00,,,0.06,0.000000,,2013-02-07 05:52:00,
2013-02-06 23:01:00,27.0,18.0,-100.00,SW,234,4.0,6.0,68,0.00,,,0.06,0.000000,,2013-02-07 06:01:00,
2013-02-06 23:32:00,25.0,16.0,-100.00,WSW,251,2.0,5.0,68,0.00,,,0.06,0.000000,,2013-02-07 06:32:00,
2013-02-06 23:43:00,25.0,16.0,-100.00,WSW,251,2.0,5.0,68,0.00,,,0.06,0.000000,,2013-02-07 06:43:00,
2013-02-06 23:52:00,25.0,16.0,-100.00,WSW,251,2.0,5.0,68,0.00,,,0.06,0.000000,,2013-02-07 06:52:00,